ONEWEB-0702

operational
NORAD ID: 61608 Int'l Des: 2024-188 Owner: ONEWEBE Country: UK Constellation: oneweb
LEOCIRCULARPOLARONEWEB_TYPE

About ONEWEB-0702

Description loading...

Live Position

Loading 3D Globe...

Upcoming Passes

Altitude History

Altitude vs Time

uPlot chart will show altitude changes over time

Two-Line Element Set

1 61608U 24188Q 25251.48443655 -.00000077 00000-0 -25334-3 0 9994
2 61608 87.8708 77.1506 0001433 123.1301 236.9964 13.11422035 47562
Epoch: Sep 8, 2025 • Age: 16 hours

Current Status

Altitude 1245.5 km
Velocity 7.23 km/s
Sub-Earth Point -73.59°S, 137.68°W
Launch Date Oct 20, 2024
Age 0.8 years
Type internet

Technical Details

Classification Payload
Mass 148.00 kg
Dry Mass 140.00 kg
Total Mass 148.00 kg
Length 1.30 m
Diameter 1.00 m
Span 5.00 m
Shape Trapezoid+2 pan
Manufacturer ONEWUS
Bus Type ARROW
Phase Status In Orbit
Owner/State ONEWEBE/UK

Large Constellations

Loading constellations...